(361291) = 2006 TW47

Discovered at Kitt Peak on 2006-10-12 by Spacewatch.

Orbit

Orbit type: Main Belt

Note: WebGL enabled browser required.

epoch2023-09-13.0
epoch JD2460200.5
perihelion date2019-05-26.43729
perihelion JD2458629.93729
argument of perihelion (°)311.45896
ascending node (°)39.15510
inclination (°)15.31789
eccentricity0.0728692
perihelion distance (AU)2.4796303
Tisserand w.r.t. Jupiter3.3
ΔV w.r.t. Earth (km/sec)11.0
semimajor axis (AU)2.6745205
mean anomaly (°)353.90788
mean daily motion (°/day)0.22533830
aphelion distance (AU)2.869
period (years)4.37
P-vector [x]0.96980157
P-vector [y]-0.05193308
P-vector [z]-0.23830206
Q-vector [x]0.17793508
Q-vector [y]0.81889196
Q-vector [z]0.54566937
absolute magnitude16.5
phase slope0.15
uncertainty0
referenceMPEC 2024-B173
observations used379
oppositions12
arc length (days)11002
first opposition used1993
last opposition used2024
residual rms (arc-secs)0.72
perturbers coarse indicatorM-v
perturbers precise indicator003Ek
first observation date used1993-11-17.0
last observation date used2024-01-01.0
computer nameMPCLINUX
JD of orbit computation2456937.378692
perihelion JD uncertainty (days)2.1209E-04
argument of perihelion uncertainty (°)5.4358E-05
ascending node uncertainty (°)1.9516E-05
inclination uncertainty (°)9.0990E-06
eccentricity uncertainty 1.1672E-07
perihelion distance uncertainty (AU)3.3687E-07
Minimum Orbit Intersection Distances (in AU)
for orbit epoch: 2460200.5, reference: E2024-BH3
Mercury2.09208
Venus1.76137
Earth1.50138
Mars1.08585
Jupiter2.43479
Saturn6.44657
Uranus15.6383
Neptune27.3049

Observations

385 total observations over interval: 1993 11 17.32539 – 2024 01 01.06665
These data are available for download (format description).

Date (UT) J2000 RA J2000 Dec Magn Location Ref
1993 11 17.32539 03 46 38.12 +28 20 23.1 20.5 V 691 – Steward Observatory, Kitt Peak-Spacewatch MPS 235508
1993 11 17.34575 03 46 36.50 +28 20 26.0   691 – Steward Observatory, Kitt Peak-Spacewatch MPS 235508
1993 11 17.37074 03 46 34.75 +28 20 30.9   691 – Steward Observatory, Kitt Peak-Spacewatch MPS 235508
2006 09 26.44706 03 21 13.96 +16 37 06.9 20.4 V G96 – Mt. Lemmon Survey MPS 185638
2006 09 26.45321 03 21 13.86 +16 37 08.6 20.1 V G96 – Mt. Lemmon Survey MPS 185638
2006 09 26.45952 03 21 13.71 +16 37 10.0 20.1 V G96 – Mt. Lemmon Survey MPS 185638
2006 09 26.46586 03 21 13.60 +16 37 11.7 20.4 V G96 – Mt. Lemmon Survey MPS 185638
2006 10 12.38147 03 12 59.52 +17 38 28.7   691 – Steward Observatory, Kitt Peak-Spacewatch MPS 183150
2006 10 12.39890 03 12 58.69 +17 38 32.1   691 – Steward Observatory, Kitt Peak-Spacewatch MPS 183150
2006 10 12.41632 03 12 57.88 +17 38 35.5   691 – Steward Observatory, Kitt Peak-Spacewatch MPS 183150
2006 10 16.42248 03 09 45.13 +17 51 33.7 20.2 V 691 – Steward Observatory, Kitt Peak-Spacewatch MPS 183150
2006 10 16.43991 03 09 44.21 +17 51 36.8 20.1 V 691 – Steward Observatory, Kitt Peak-Spacewatch MPS 183150
2006 10 16.45734 03 09 43.28 +17 51 39.9 20.2 V 691 – Steward Observatory, Kitt Peak-Spacewatch MPS 183150
2006 10 28.32580 02 58 07.77 +18 23 25.7 20.6 V 691 – Steward Observatory, Kitt Peak-Spacewatch MPS 185638
2006 10 28.34320 02 58 06.60 +18 23 27.9 20.5 V 691 – Steward Observatory, Kitt Peak-Spacewatch MPS 185638
2006 10 28.36114 02 58 05.41 +18 23 30.4 20.4 V 691 – Steward Observatory, Kitt Peak-Spacewatch MPS 185638
2006 11 08.39850 02 45 46.87 +18 44 26.4 19.2 R 644 – Palomar Mountain/NEAT MPS 192330
2006 11 08.42018 02 45 45.37 +18 44 28.1 19.2 R 644 – Palomar Mountain/NEAT MPS 192330
2006 11 08.44058 02 45 43.92 +18 44 30.2 19.2 R 644 – Palomar Mountain/NEAT MPS 192330
2006 11 09.31376 02 44 45.13 +18 45 51.7 19.4 R 644 – Palomar Mountain/NEAT MPS 190560
2006 11 09.33457 02 44 43.70 +18 45 53.4 19.5 R 644 – Palomar Mountain/NEAT MPS 190560
2006 11 09.35660 02 44 42.17 +18 45 55.6 19.5 R 644 – Palomar Mountain/NEAT MPS 190560
2006 11 12.33941 02 41 22.27 +18 50 14.7 19.9 V G96 – Mt. Lemmon Survey MPS 187116
2006 11 12.34138 02 41 22.12 +18 50 15.1 19.8 V G96 – Mt. Lemmon Survey MPS 187116
2006 11 12.34319 02 41 21.98 +18 50 15.2 19.9 V G96 – Mt. Lemmon Survey MPS 187116
2006 11 12.34503 02 41 21.87 +18 50 15.4 20.2 V G96 – Mt. Lemmon Survey MPS 187116
2006 11 17.24951 02 36 03.27 +18 56 37.3 19.6 V G96 – Mt. Lemmon Survey MPS 187116
2006 11 17.25662 02 36 02.80 +18 56 38.0 19.6 V G96 – Mt. Lemmon Survey MPS 187116
2006 11 17.26368 02 36 02.34 +18 56 38.4 19.6 V G96 – Mt. Lemmon Survey MPS 187116
2006 11 17.27081 02 36 01.87 +18 56 39.0 19.6 V G96 – Mt. Lemmon Survey MPS 187116
2006 11 17.31409 02 35 59.06 +18 56 42.1 20.1 V G96 – Mt. Lemmon Survey MPS 187117
2006 11 17.32139 02 35 58.59 +18 56 42.4 20.0 V G96 – Mt. Lemmon Survey MPS 187117
2006 11 17.32869 02 35 58.12 +18 56 43.4 19.6 V G96 – Mt. Lemmon Survey MPS 187117
2006 11 18.26310 02 34 59.62 +18 57 51.6 20.1 V G96 – Mt. Lemmon Survey MPS 188783
2006 11 18.27056 02 34 59.12 +18 57 51.9 20.3 V G96 – Mt. Lemmon Survey MPS 188783
2006 11 18.27793 02 34 58.65 +18 57 52.3 20.2 V G96 – Mt. Lemmon Survey MPS 188783
2006 11 18.28534 02 34 58.15 +18 57 53.0 20.1 V G96 – Mt. Lemmon Survey MPS 188783
2006 11 18.63632 02 34 36.23 +18 58 20.6 21.5 R D35 – Lulin Observatory MPS 188783
2006 11 18.64012 02 34 36.08 +18 58 20.1 20.7 R D35 – Lulin Observatory MPS 188783
2006 11 18.64284 02 34 35.91 +18 58 19.9 19.7 R D35 – Lulin Observatory MPS 188783
2006 11 22.21654 02 31 00.98 +19 02 31.5 19.9   704 – Lincoln Laboratory ETS, New Mexico MPS 188783
2006 11 22.22900 02 31 00.27 +19 02 31.0 20.0   704 – Lincoln Laboratory ETS, New Mexico MPS 188783
2006 11 22.24138 02 30 59.57 +19 02 32.0 20.0   704 – Lincoln Laboratory ETS, New Mexico MPS 188783
2008 01 20.33964 10 57 03.52 +29 54 17.5 21.0 V G96 – Mt. Lemmon Survey MPS 235508
2008 01 20.34417 10 57 03.38 +29 54 19.8 21.3 V G96 – Mt. Lemmon Survey MPS 235508
2008 01 20.34862 10 57 03.27 +29 54 20.9 20.9 V G96 – Mt. Lemmon Survey MPS 235508
2008 01 20.35321 10 57 03.13 +29 54 23.8 20.8 V G96 – Mt. Lemmon Survey MPS 235508
2010 09 16.33675 00 31 26.86 -15 14 11.0 19.9 V 703 – Catalina Sky Survey MPS 348018
2010 09 16.34419 00 31 26.40 -15 14 11.9 19.7 V 703 – Catalina Sky Survey MPS 348018
2010 09 16.35169 00 31 25.96 -15 14 11.4 20.1 V 703 – Catalina Sky Survey MPS 348018
2010 09 16.35916 00 31 25.53 -15 14 13.3 20.0 V 703 – Catalina Sky Survey MPS 348018
2010 09 18.505752 00 29 18.690 -15 17 41.94 19.67 r F51 – Pan-STARRS 1, Haleakala MPS 365627
2010 09 18.517681 00 29 17.945 -15 17 42.94 19.71 r F51 – Pan-STARRS 1, Haleakala MPS 365627
2010 10 15.305370 00 02 53.574 -14 47 01.15 20.15 i F51 – Pan-STARRS 1, Haleakala MPS 365627
2010 10 15.316069 00 02 53.002 -14 46 58.46 20.08 i F51 – Pan-STARRS 1, Haleakala MPS 365627
2013 03 21.04968 13 56 05.83 -03 15 10.3 20.9 R B74 – Santa Maria de Montmagastrell MPS 460565
2013 03 21.05467 13 56 05.65 -03 15 09.3 20.8 R B74 – Santa Maria de Montmagastrell MPS 460565
2013 03 21.06299 13 56 05.35 -03 15 08.9 20.8 R B74 – Santa Maria de Montmagastrell MPS 460565
2013 04 01.96768 13 46 27.75 -03 00 36.2 20.7 R B74 – Santa Maria de Montmagastrell MPS 461668
2013 04 01.97434 13 46 27.37 -03 00 35.5 20.7 R B74 – Santa Maria de Montmagastrell MPS 461668
2013 04 01.98433 13 46 26.80 -03 00 34.7 20.5 R B74 – Santa Maria de Montmagastrell MPS 461668
2013 04 09.52465 13 39 18.119 -02 51 35.18 20.6 g F51 – Pan-STARRS 1, Haleakala MPS 462718
2013 04 09.53653 13 39 17.381 -02 51 34.55 20.6 g F51 – Pan-STARRS 1, Haleakala MPS 462718
2013 04 10.41769 13 38 25.673 -02 50 38.09 20.9 w F51 – Pan-STARRS 1, Haleakala MPS 462718
2013 04 10.41901 13 38 25.595 -02 50 38.07 20.9 w F51 – Pan-STARRS 1, Haleakala MPS 462718
2013 04 10.43265 13 38 24.764 -02 50 37.22 20.8 w F51 – Pan-STARRS 1, Haleakala MPS 462718
2013 04 10.44502 13 38 24.009 -02 50 36.35 20.4 w F51 – Pan-STARRS 1, Haleakala MPS 462718
2013 04 10.44634 13 38 23.929 -02 50 36.44 20.3 w F51 – Pan-STARRS 1, Haleakala MPS 462718
2013 04 10.45873 13 38 23.170 -02 50 35.61 20.2 w F51 – Pan-STARRS 1, Haleakala MPS 462718
2013 04 10.46004 13 38 23.095 -02 50 35.56 20.2 w F51 – Pan-STARRS 1, Haleakala MPS 462718
2013 04 15.47765 13 33 24.065 -02 45 59.40 20.0 r F51 – Pan-STARRS 1, Haleakala MPS 464065
2013 04 15.48798 13 33 23.429 -02 45 58.79 20.1 r F51 – Pan-STARRS 1, Haleakala MPS 464065
2013 06 13.04631 13 00 07.14 -04 52 57.6 21.9 r W84 – Cerro Tololo-DECam MPS 1224094
2013 06 13.05278 13 00 07.17 -04 52 59.7   W84 – Cerro Tololo-DECam MPS 1224094
2013 06 13.05601 13 00 07.17 -04 53 00.7   W84 – Cerro Tololo-DECam MPS 1224094
2013 06 13.06571 13 00 07.21 -04 53 03.8   W84 – Cerro Tololo-DECam MPS 1224094
2013 06 13.06895 13 00 07.22 -04 53 04.8   W84 – Cerro Tololo-DECam MPS 1224094
2013 06 13.07219 13 00 07.23 -04 53 05.9   W84 – Cerro Tololo-DECam MPS 1224094
2013 06 13.07864 13 00 07.25 -04 53 08.0   W84 – Cerro Tololo-DECam MPS 1224094
2013 06 13.08187 13 00 07.26 -04 53 09.0   W84 – Cerro Tololo-DECam MPS 1224094
2014 06 27.56525 21 46 55.427 -37 32 36.81 20.0 w F51 – Pan-STARRS 1, Haleakala MPS 521273
2014 06 27.57449 21 46 55.357 -37 32 41.45 20.0 w F51 – Pan-STARRS 1, Haleakala MPS 521273
2014 06 27.58372 21 46 55.271 -37 32 46.00 20.2 w F51 – Pan-STARRS 1, Haleakala MPS 521273
2014 06 27.59294 21 46 55.190 -37 32 50.55 20.2 w F51 – Pan-STARRS 1, Haleakala MPS 521273
2014 09 28.30470 20 45 50.719 -38 33 17.31 20.3 w F51 – Pan-STARRS 1, Haleakala MPS 538771
2014 09 28.31460 20 45 50.795 -38 33 12.29 20.4 w F51 – Pan-STARRS 1, Haleakala MPS 538771
2014 09 28.32451 20 45 50.879 -38 33 06.61 20.3 w F51 – Pan-STARRS 1, Haleakala MPS 538771
2015 12 17.26458 04 21 38.42 +36 02 09.5 20.1 V G96 – Mt. Lemmon Survey MPS 662565
2015 12 17.27066 04 21 37.98 +36 02 09.5 20.1 V G96 – Mt. Lemmon Survey MPS 662565
2015 12 17.27673 04 21 37.52 +36 02 09.8 19.9 V G96 – Mt. Lemmon Survey MPS 662565
2015 12 17.28284 04 21 37.18 +36 02 10.1 19.8 V G96 – Mt. Lemmon Survey MPS 662565
